Regional Weather Roundup
Issued by NWS Charleston, SC

Current Version | Previous Version | Text Only | Print | Product List | Glossary Off
Versions: 1 2 3 4 5 6 7 8 9 10 11 12 13 14 15 16 17 18 19 20 21 22 23 24 25 26 27 28 29 30 31 32 33 34 35 36 37 38 39 40 41 42 43 44 45 46 47 48 49 50
000 ASUS42 KCHS 011928 RWRCHS REGIONAL WEATHER ROUNDUP NATIONAL WEATHER SERVICE CHARLESTON SC 300 PM EDT SUN MAY 01 2016 NOTE: "FAIR" INDICATES FEW OR NO CLOUDS BELOW 12,000 FEET WITH NO SIGNIFICANT WEATHER AND/OR OBSTRUCTIONS TO VISIBILITY. NOT ALL STATIONS ARE QUALITY CONTROLLED. USE DATA WITH CAUTION... ESPECIALLY DEWPOINT OBSERVATIONS. SCZ027-030-031-034>040-042>050-012000- ...SOUTHEAST SOUTH CAROLINA... CITY SKY/WX TMP DP RH WIND PRES REMARKS N CHARLESTON LGT RAIN 78 71 79 S9 30.04F WATERFRONT PRK N/A 77 72 84 S9 30.03F MOUNT PLEASANT FAIR 79 72 78 S8G18 30.05F JOHNS ISLAND MOCLDY 81 73 78 S14 30.05F PINOPOLIS N/A 86 72 62 S6 29.95F HX 92 MONCKS CORNER FAIR 77 64 65 S10 30.03F SUMMERVILLE FAIR 77 66 69 S7 30.05F BEAUFORT MCAS LGT RAIN 81 68 64 S7G17 30.04F BEAUFORT ARPT FAIR 81 68 65 S13G18 30.04F HILTON HEAD IS PTSUNNY 77 70 78 S14G21 30.07S WALTERBORO CLOUDY 79 72 78 E6 30.03F ALLENDALE TSTM 72 64 78 NW7G20 30.06R ...SOUTHERN MIDLANDS AND PEE DEE... CITY SKY/WX TMP DP RH WIND PRES REMARKS GEORGETOWN CLOUDY 79 68 69 S10G18 30.06F KINGSTREE CLOUDY 72 63 73 N3 30.04R ORANGEBURG CLOUDY 76 70 82 SE5 30.03F BARNWELL FAIR 72 72 100 S7 30.05S AIKEN MOCLDY 82 66 57 S8 30.04F MANNING NOT AVBL COLUMBIA PTSUNNY 84 68 58 S10 29.99F SUMTER CLOUDY 70 66 88 SE6 30.03R FLORENCE CLOUDY 67 65 93 E12 30.05F MYRTLE BEACH PTSUNNY 75 64 69 S12 30.08F N MYRTLE BEACH CLOUDY 74 68 81 SE5 30.08F $$ GAZ063-065-086>088-099>101-113>116-118-119-134>141-150-012000- ...SOUTHEAST GEORGIA... CITY SKY/WX TMP DP RH WIND PRES REMARKS SAVANNAH ARPT PTSUNNY 82 67 60 SE14 30.04F HUNTER AAF MOSUNNY 81 73 76 S12 30.02F FORT STEWART MOSUNNY 86 65 49 S5 30.00F STATESBORO PTSUNNY 85 71 63 N10 30.03R SYLVANIA CLOUDY 80 69 70 NW13G18 30.04R CLAXTON FAIR 85 72 64 SE5 30.00F HX 90 ...CSRA...CENTRAL AND FAR SOUTHEAST GEORGIA... CITY SKY/WX TMP DP RH WIND PRES REMARKS THOMSON SUNNY 88 67 49 W5 30.04F HX 91 AUGUSTA-BUSH PTSUNNY 86 66 51 S9 29.99F AUGUSTA-DANIEL MOSUNNY 89 64 43 VRB7 30.01F HX 90 SWAINSBORO FAIR 82 70 65 S7 30.03F VIDALIA CLOUDY 82 68 61 NW10G16 30.01F EASTMAN FAIR 84 68 58 SW3 30.04F HAZLEHURST MOCLDY 87 67 50 SW7 30.00F HX 90 ALMA MOSUNNY 86 67 52 S9 30.02F WAYCROSS MOSUNNY 86 67 52 SW5 30.01F JESUP FAIR 88 72 58 SE6 30.02F HX 94 BAXLEY FAIR 90 68 48 S9 30.00F HX 93 BRUNSWICK MOSUNNY 88 68 51 SE13G18 30.03F HX 91 SAINT SIMONS SUNNY 81 72 74 SE15 30.04F $$ SCZ027-028-034-036>038-045-046-048>050-GAZ119-141-012000- ...LAKE AND SUPPLEMENTAL COASTAL OBSERVATIONS... STATION/POSITION TIME TEMP WIND PRES WAVE SWELL AIR SEA DIR/SP/G HT/PER HT/PER/DIR (UTC) (F) (DEG/KT/KT) (MB) (FT/S) (FT/S/D) WINYAH BAY 1800 78 190/ 12 1018.0S LAKE MURRAY 1800 80 230/ 9/ 11 1015.6F ACE BASIN NERRS 1800 81 160/ 2 1018.0S FORT PULASKI 1900 79 74 160/ 7/ 12 1018.0S SAPELO ISLAND 1900 83 140/ 10 1017.0F $$ ANZ835-935-AMZ111-154-330-350-352-354-370-450-454-472-012000- ...C-MAN AND BUOY OBSERVATIONS... STATION/POSITION TIME TEMP WIND PRES WAVE SWELL AIR SEA DIR/SP/G HT/PER HT/PER/DIR (UTC) (F) (DEG/KT/KT) (MB) (FT/S) (FT/S/D) BUOY 41004 1850 76 74 170/ 10/ 12 1017.8F 4/ 7 3/ 7 BUOY 41008 NOT AVBL FOLLY BEACH CMAN 1900 75 180/ 11/ 12 1017.9F CAPERS NEARSHORE 1808 74 72 180/ 8/ 12 1018.2F FRIPP NEARSHORE 1908 75 74 180/ 8/ 10 1017.2S STATION/POSITION TIME TEMP WIND PRES WAVE SWELL AIR SEA DIR/SP/G HT/PER HT/PER/DIR (UTC) (F) (DEG/KT/KT) (MB) (FT/S) (FT/S/D) 5E ST. MARYS GA 1821 75 N/A 3/ 6 FRYING PAN BUOY 1900 74 72 170/ 4/ 6 1018.6F BUOY 41025 1850 74 74 190/ 16/ 17 1019.2F 4/11 3/ 50/11 CAPE LOOKOUT NC 1900 74 220/ 9/ 13 1019.1F BUOY 41002 1850 72 140/ 10/ 12 1020.6F 4/10 3/ 10/10 BUOY 41010 1820 77 78 150/ 8/ 10 1018.7S ST AUGUSTINE FL 1900 75 74 140/ 11/ 12 1017.8F $$

USA.gov is the U.S. government's official web portal to all federal, state and local government web resources and services.